Airfield :
LOGIN :

Register | Disclaimer

   EN    FR    IT 

 










Legend :    VFR   Marginal VFR   IFR   Intensive IFR   Very Intensive IFR
Visi :
Ceiling :
>= 8 km
>= 3000ft
5 to 8 km
1000 to 3000 ft
1500m to 5 km
500 to 1000 ft
800 to 1500m
200 to 500 ft
< 800m
< 200 ft
Symbols :   Thunderstorms  Fog  Heavy snow  Heavy precipitations  Wind > 20 kt
SIGMETs :     Misc.  Thunderstorms  Icing  Turbulence  Mountain Waves  Volcanic Ashes







- Airport Elevation : 433 ft
- Download approach charts


LFOC - Chateaudun

CURRENT METAR :
  • 210830Z AUTO VRB04KT CAVOK 18/12 Q1013

EXPIRED METARs :
  • 210800Z AUTO 04004KT 010V090 CAVOK 17/12 Q1013
  • 210730Z AUTO 03005KT 350V060 CAVOK 15/11 Q1013
  • 210700Z AUTO 04007KT CAVOK 15/12 Q1014
  • 210630Z AUTO 02005KT 350V050 CAVOK 14/12 Q1014
  • 210600Z AUTO VRB03KT 9000 NSC 12/10 Q1014

Expired Forecast.
No reported NOTAMs for that airfield.



MET'MAP, your aeronautical weather chart ! - Copyright ORBIFLY December 2007 - Disclaimer

ORBIFLY MET'MAP TEAM :

Programming & Development : Alexandra Zaïnal
Concept & Development : Baudouin d'Aumeries
Co-Development & Prog : Marc-Olivier Méhu
Technical & hardware support : Manuel Goepfert

Contact : metmap@orbifly.com




SOURCES & CREDITS :

   NOAA